Time,TemperatureF,DewpointF,PressureIn,WindDirection,WindDirectionDegrees,WindSpeedMPH,WindSpeedGustMPH,Humidity,HourlyPrecipIn,Conditions,Clouds,dailyrainin,SoftwareType,DateUTC
2013-11-22 00:01:00,50.8,51.0,30.49,SSE,161,0.0,-999.0,99,-99.99,,,0.22,weatherlink.com 1.10,2013-11-22 05:01:00,
2013-11-22 00:16:00,50.9,51.0,30.49,WSW,246,0.0,-999.0,99,-99.99,,,0.23,weatherlink.com 1.10,2013-11-22 05:16:00,
2013-11-22 00:31:00,51.1,51.0,30.49,SSE,163,0.0,-999.0,99,-99.99,,,0.23,weatherlink.com 1.10,2013-11-22 05:31:00,
2013-11-22 00:46:00,51.3,51.0,30.48,SSW,198,0.0,-999.0,99,-99.99,,,0.24,weatherlink.com 1.10,2013-11-22 05:46:00,
2013-11-22 01:01:00,51.4,51.0,30.48,SSW,199,2.0,-999.0,99,-99.99,,,0.00,weatherlink.com 1.10,2013-11-22 06:01:00,
2013-11-22 01:16:00,51.0,51.0,30.48,SW,225,0.0,-999.0,99,-99.99,,,0.00,weatherlink.com 1.10,2013-11-22 06:16:00,
2013-11-22 01:31:00,50.5,50.0,30.47,SSW,204,0.0,-999.0,99,-99.99,,,0.00,weatherlink.com 1.10,2013-11-22 06:31:00,
2013-11-22 01:46:00,50.8,51.0,30.47,SSW,203,0.0,-999.0,99,-99.99,,,0.00,weatherlink.com 1.10,2013-11-22 06:46:00,
2013-11-22 02:01:00,50.9,51.0,30.47,SSW,206,0.0,-999.0,99,-99.99,,,0.00,weatherlink.com 1.10,2013-11-22 07:01:00,
2013-11-22 02:16:00,51.0,51.0,30.48,NW,313,1.0,-999.0,99,-99.99,,,0.00,weatherlink.com 1.10,2013-11-22 07:16:00,
2013-11-22 02:31:00,51.2,51.0,30.47,SSW,200,0.0,-999.0,99,-99.99,,,0.00,weatherlink.com 1.10,2013-11-22 07:31:00,
2013-11-22 02:46:00,50.9,51.0,30.47,SSW,203,0.0,-999.0,99,-99.99,,,0.00,weatherlink.com 1.10,2013-11-22 07:46:00,
2013-11-22 03:01:00,50.9,51.0,30.46,WSW,252,0.0,-999.0,99,-99.99,,,0.00,weatherlink.com 1.10,2013-11-22 08:01:00,
2013-11-22 03:16:00,50.8,51.0,30.46,SW,227,0.0,-999.0,99,-99.99,,,0.00,weatherlink.com 1.10,2013-11-22 08:16:00,
2013-11-22 03:31:00,50.7,51.0,30.46,SW,227,0.0,-999.0,99,-99.99,,,0.00,weatherlink.com 1.10,2013-11-22 08:31:00,
2013-11-22 03:46:00,50.8,51.0,30.45,SW,221,0.0,-999.0,99,-99.99,,,0.01,weatherlink.com 1.10,2013-11-22 08:46:00,
2013-11-22 04:01:00,50.5,50.0,30.44,SW,217,0.0,-999.0,99,-99.99,,,0.01,weatherlink.com 1.10,2013-11-22 09:01:00,
2013-11-22 04:16:00,50.3,50.0,30.45,SW,217,0.0,-999.0,99,-99.99,,,0.01,weatherlink.com 1.10,2013-11-22 09:16:00,
2013-11-22 04:31:00,50.7,51.0,30.44,SSW,206,2.0,-999.0,99,-99.99,,,0.01,weatherlink.com 1.10,2013-11-22 09:31:00,
2013-11-22 04:46:00,51.0,51.0,30.44,SW,215,0.0,-999.0,99,-99.99,,,0.01,weatherlink.com 1.10,2013-11-22 09:46:00,
2013-11-22 05:01:00,50.8,51.0,30.44,SW,215,0.0,-999.0,99,-99.99,,,0.01,weatherlink.com 1.10,2013-11-22 10:01:00,
2013-11-22 05:16:00,51.1,51.0,30.44,WSW,253,1.0,-999.0,99,-99.99,,,0.01,weatherlink.com 1.10,2013-11-22 10:16:00,
2013-11-22 05:31:00,51.1,51.0,30.44,SW,232,0.0,-999.0,99,-99.99,,,0.01,weatherlink.com 1.10,2013-11-22 10:31:00,
2013-11-22 05:46:00,51.0,51.0,30.44,SW,218,0.0,-999.0,99,-99.99,,,0.01,weatherlink.com 1.10,2013-11-22 10:46:00,
2013-11-22 06:01:00,51.0,51.0,30.44,SW,218,0.0,-999.0,99,-99.99,,,0.02,weatherlink.com 1.10,2013-11-22 11:01:00,
2013-11-22 06:16:00,51.2,51.0,30.44,SSW,211,0.0,-999.0,99,-99.99,,,0.02,weatherlink.com 1.10,2013-11-22 11:16:00,
2013-11-22 06:31:00,51.4,51.0,30.44,SSW,211,0.0,-999.0,99,-99.99,,,0.02,weatherlink.com 1.10,2013-11-22 11:31:00,
2013-11-22 06:46:00,51.4,51.0,30.43,SSW,211,0.0,-999.0,99,-99.99,,,0.02,weatherlink.com 1.10,2013-11-22 11:46:00,
2013-11-22 07:01:00,51.5,51.0,30.43,SSW,208,0.0,-999.0,99,-99.99,,,0.02,weatherlink.com 1.10,2013-11-22 12:01:00,
2013-11-22 07:16:00,51.7,52.0,30.43,SSW,208,0.0,-999.0,99,-99.99,,,0.02,weatherlink.com 1.10,2013-11-22 12:16:00,
2013-11-22 07:31:00,51.7,52.0,30.42,SSW,202,1.0,-999.0,99,-99.99,,,0.02,weatherlink.com 1.10,2013-11-22 12:31:00,
2013-11-22 07:46:00,51.8,52.0,30.43,SW,215,2.0,-999.0,99,-99.99,,,0.02,weatherlink.com 1.10,2013-11-22 12:46:00,
2013-11-22 08:01:00,52.0,52.0,30.42,SW,216,0.0,-999.0,99,-99.99,,,0.02,weatherlink.com 1.10,2013-11-22 13:01:00,
2013-11-22 08:16:00,51.9,52.0,30.43,SSW,212,1.0,-999.0,99,-99.99,,,0.02,weatherlink.com 1.10,2013-11-22 13:16:00,
2013-11-22 08:31:00,52.0,52.0,30.43,SSW,212,0.0,-999.0,99,-99.99,,,0.02,weatherlink.com 1.10,2013-11-22 13:31:00,
2013-11-22 08:46:00,51.8,52.0,30.43,SSW,212,0.0,-999.0,99,-99.99,,,0.02,weatherlink.com 1.10,2013-11-22 13:46:00,
2013-11-22 09:01:00,51.7,52.0,30.43,SSW,212,0.0,-999.0,99,-99.99,,,0.02,weatherlink.com 1.10,2013-11-22 14:01:00,
2013-11-22 09:16:00,51.3,51.0,30.43,SSW,212,0.0,-999.0,99,-99.99,,,0.02,weatherlink.com 1.10,2013-11-22 14:16:00,
2013-11-22 09:31:00,51.9,52.0,30.42,SSW,212,0.0,-999.0,99,-99.99,,,0.02,weatherlink.com 1.10,2013-11-22 14:31:00,
2013-11-22 09:46:00,52.5,52.0,30.42,SSW,211,0.0,-999.0,99,-99.99,,,0.02,weatherlink.com 1.10,2013-11-22 14:46:00,
2013-11-22 10:01:00,53.0,53.0,30.42,SSW,211,1.0,-999.0,99,-99.99,,,0.02,weatherlink.com 1.10,2013-11-22 15:01:00,
2013-11-22 10:31:00,53.2,53.0,30.42,SSW,211,0.0,-999.0,99,-99.99,,,0.02,weatherlink.com 1.10,2013-11-22 15:31:00,
2013-11-22 10:46:00,53.3,53.0,30.42,SSW,211,2.0,-999.0,99,-99.99,,,0.02,weatherlink.com 1.10,2013-11-22 15:46:00,
2013-11-22 11:01:00,53.2,53.0,30.42,SSW,211,0.0,-999.0,99,-99.99,,,0.02,weatherlink.com 1.10,2013-11-22 16:01:00,
2013-11-22 11:16:00,53.2,53.0,30.42,SSW,207,0.0,-999.0,99,-99.99,,,0.02,weatherlink.com 1.10,2013-11-22 16:16:00,
2013-11-22 11:31:00,53.2,53.0,30.41,SSW,201,3.0,-999.0,99,-99.99,,,0.02,weatherlink.com 1.10,2013-11-22 16:31:00,
2013-11-22 11:46:00,53.3,53.0,30.41,SSW,209,0.0,-999.0,99,-99.99,,,0.02,weatherlink.com 1.10,2013-11-22 16:46:00,
2013-11-22 12:01:00,53.7,54.0,30.40,SSW,209,0.0,-999.0,99,-99.99,,,0.02,weatherlink.com 1.10,2013-11-22 17:01:00,
2013-11-22 12:16:00,53.7,54.0,30.39,SSW,203,1.0,-999.0,99,-99.99,,,0.02,weatherlink.com 1.10,2013-11-22 17:16:00,
2013-11-22 12:31:00,53.9,54.0,30.38,SSW,205,1.0,-999.0,99,-99.99,,,0.02,weatherlink.com 1.10,2013-11-22 17:31:00,
2013-11-22 12:46:00,54.2,54.0,30.38,SSW,207,1.0,-999.0,99,-99.99,,,0.02,weatherlink.com 1.10,2013-11-22 17:46:00,
2013-11-22 13:01:00,54.6,54.0,30.37,SSW,206,3.0,-999.0,99,-99.99,,,0.02,weatherlink.com 1.10,2013-11-22 18:01:00,
2013-11-22 13:16:00,55.0,55.0,30.36,SSW,213,1.0,-999.0,99,-99.99,,,0.02,weatherlink.com 1.10,2013-11-22 18:16:00,
2013-11-22 13:31:00,55.1,55.0,30.35,SSW,202,2.0,-999.0,99,-99.99,,,0.02,weatherlink.com 1.10,2013-11-22 18:31:00,
2013-11-22 13:46:00,55.4,55.0,30.34,SSW,209,3.0,-999.0,99,-99.99,,,0.02,weatherlink.com 1.10,2013-11-22 18:46:00,
2013-11-22 14:01:00,55.2,55.0,30.33,SSW,207,2.0,-999.0,99,-99.99,,,0.02,weatherlink.com 1.10,2013-11-22 19:01:00,
2013-11-22 14:16:00,55.8,56.0,30.33,SSW,207,5.0,-999.0,99,-99.99,,,0.02,weatherlink.com 1.10,2013-11-22 19:16:00,
2013-11-22 14:31:00,55.5,55.0,30.32,SW,229,5.0,-999.0,99,-99.99,,,0.02,weatherlink.com 1.10,2013-11-22 19:31:00,
2013-11-22 14:46:00,55.7,56.0,30.32,SSW,208,1.0,-999.0,99,-99.99,,,0.02,weatherlink.com 1.10,2013-11-22 19:46:00,
2013-11-22 15:01:00,55.7,56.0,30.31,SSW,208,0.0,-999.0,99,-99.99,,,0.02,weatherlink.com 1.10,2013-11-22 20:01:00,
2013-11-22 15:16:00,55.6,55.0,30.31,SSW,208,0.0,-999.0,99,-99.99,,,0.02,weatherlink.com 1.10,2013-11-22 20:16:00,
2013-11-22 15:31:00,55.7,56.0,30.31,SSW,208,1.0,-999.0,99,-99.99,,,0.02,weatherlink.com 1.10,2013-11-22 20:31:00,
2013-11-22 15:46:00,55.6,55.0,30.31,SSW,208,0.0,-999.0,99,-99.99,,,0.02,weatherlink.com 1.10,2013-11-22 20:46:00,
2013-11-22 16:01:00,55.5,55.0,30.31,SSW,207,1.0,-999.0,99,-99.99,,,0.02,weatherlink.com 1.10,2013-11-22 21:01:00,
2013-11-22 16:16:00,55.6,55.0,30.31,SSW,207,1.0,-999.0,99,-99.99,,,0.02,weatherlink.com 1.10,2013-11-22 21:16:00,
2013-11-22 16:31:00,55.5,55.0,30.31,SSW,207,0.0,-999.0,99,-99.99,,,0.02,weatherlink.com 1.10,2013-11-22 21:31:00,
2013-11-22 16:46:00,55.5,55.0,30.30,SSW,207,0.0,-999.0,99,-99.99,,,0.02,weatherlink.com 1.10,2013-11-22 21:46:00,
2013-11-22 17:01:00,55.4,55.0,30.30,SSW,207,0.0,-999.0,99,-99.99,,,0.03,weatherlink.com 1.10,2013-11-22 22:01:00,
2013-11-22 17:16:00,55.3,55.0,30.30,SSW,207,0.0,-999.0,99,-99.99,,,0.03,weatherlink.com 1.10,2013-11-22 22:16:00,
2013-11-22 17:31:00,55.3,55.0,30.30,SSW,207,0.0,-999.0,99,-99.99,,,0.03,weatherlink.com 1.10,2013-11-22 22:31:00,
2013-11-22 17:46:00,55.5,55.0,30.29,SSW,205,1.0,-999.0,99,-99.99,,,0.03,weatherlink.com 1.10,2013-11-22 22:46:00,
2013-11-22 18:02:00,55.4,55.0,30.29,SSW,196,2.0,-999.0,99,-99.99,,,0.03,weatherlink.com 1.10,2013-11-22 23:02:00,
2013-11-22 18:16:00,55.4,55.0,30.29,SSW,201,0.0,-999.0,99,-99.99,,,0.03,weatherlink.com 1.10,2013-11-22 23:16:00,
2013-11-22 18:31:00,55.3,55.0,30.29,SSW,198,2.0,-999.0,99,-99.99,,,0.03,weatherlink.com 1.10,2013-11-22 23:31:00,
2013-11-22 18:46:00,55.1,55.0,30.28,SSW,198,0.0,-999.0,99,-99.99,,,0.03,weatherlink.com 1.10,2013-11-22 23:46:00,
2013-11-22 19:01:00,55.0,55.0,30.28,SSW,198,0.0,-999.0,99,-99.99,,,0.03,weatherlink.com 1.10,2013-11-23 00:01:00,
2013-11-22 19:16:00,54.9,55.0,30.28,SSW,195,0.0,-999.0,99,-99.99,,,0.03,weatherlink.com 1.10,2013-11-23 00:16:00,
2013-11-22 19:31:00,54.9,55.0,30.28,SSW,196,0.0,-999.0,99,-99.99,,,0.03,weatherlink.com 1.10,2013-11-23 00:31:00,
2013-11-22 19:46:00,54.8,55.0,30.28,SSW,196,0.0,-999.0,99,-99.99,,,0.03,weatherlink.com 1.10,2013-11-23 00:46:00,
2013-11-22 20:01:00,54.8,55.0,30.27,SSW,196,0.0,-999.0,99,-99.99,,,0.03,weatherlink.com 1.10,2013-11-23 01:01:00,
2013-11-22 20:16:00,54.8,55.0,30.27,SSW,196,0.0,-999.0,99,-99.99,,,0.03,weatherlink.com 1.10,2013-11-23 01:16:00,
2013-11-22 20:31:00,54.8,55.0,30.27,SSW,196,0.0,-999.0,99,-99.99,,,0.03,weatherlink.com 1.10,2013-11-23 01:31:00,
2013-11-22 20:46:00,54.7,55.0,30.27,SSW,196,1.0,-999.0,99,-99.99,,,0.03,weatherlink.com 1.10,2013-11-23 01:46:00,
2013-11-22 21:01:00,54.7,55.0,30.27,SSW,196,0.0,-999.0,99,-99.99,,,0.03,weatherlink.com 1.10,2013-11-23 02:01:00,
2013-11-22 21:16:00,54.6,54.0,30.27,SSW,196,1.0,-999.0,99,-99.99,,,0.03,weatherlink.com 1.10,2013-11-23 02:16:00,
2013-11-22 21:31:00,54.6,54.0,30.27,SSW,196,0.0,-999.0,99,-99.99,,,0.03,weatherlink.com 1.10,2013-11-23 02:31:00,
2013-11-22 21:46:00,54.7,55.0,30.27,NNE,32,3.0,-999.0,99,-99.99,,,0.03,weatherlink.com 1.10,2013-11-23 02:46:00,
2013-11-22 22:01:00,54.6,54.0,30.27,NNE,22,2.0,-999.0,99,-99.99,,,0.03,weatherlink.com 1.10,2013-11-23 03:01:00,
2013-11-22 22:16:00,54.3,54.0,30.27,NNE,22,1.0,-999.0,99,-99.99,,,0.03,weatherlink.com 1.10,2013-11-23 03:16:00,
2013-11-22 22:31:00,54.2,54.0,30.25,NE,46,4.0,-999.0,99,-99.99,,,0.04,weatherlink.com 1.10,2013-11-23 03:31:00,
2013-11-22 22:46:00,54.1,54.0,30.25,NNE,23,8.0,-999.0,99,-99.99,,,0.04,weatherlink.com 1.10,2013-11-23 03:46:00,
2013-11-22 23:01:00,53.7,54.0,30.25,NE,34,5.0,-999.0,99,-99.99,,,0.04,weatherlink.com 1.10,2013-11-23 04:01:00,
2013-11-22 23:16:00,53.5,53.0,30.25,NE,38,4.0,-999.0,99,-99.99,,,0.04,weatherlink.com 1.10,2013-11-23 04:16:00,
2013-11-22 23:31:00,53.2,53.0,30.25,NNE,33,5.0,-999.0,99,-99.99,,,0.04,weatherlink.com 1.10,2013-11-23 04:31:00,
2013-11-22 23:46:00,53.1,53.0,30.25,NNE,20,5.0,-999.0,99,-99.99,,,0.04,weatherlink.com 1.10,2013-11-23 04:46:00,